Wind_Speed
33 29 27 27 27 26 26 29 32 32 37 37 39 42 42 41 37 37 38 39 40 37 36 35 36 35 34 33 33 30 31 30
30 31 31 35 32 29 27 27 29 32 36 41 42 44 44 45 44 38 39 38 38 39 38 37 38 37 36 35 32 31 33 29
24 28 30 30 28 28 29 30 30 31 35 38 40 43 46 46 49 46 42 40 37 39 42 41 40 38 38 35 33 34 34 32
23 24 24 25 25 25 28 31 32 33 32 32 34 37 41 43 49 52 47 44 41 39 42 41 39 40 39 38 35 34 35 36
24 26 27 26 28 31 29 32 34 33 33 34 35 40 41 45 49 50 50 49 45 42 41 39 41 39 39 38 36 35 33 36
26 26 26 27 28 29 35 35 33 34 34 35 37 42 44 45 46 46 52 54 47 44 40 41 42 39 37 37 37 37 34 34
26 26 26 24 23 23 28 31 33 31 35 37 40 42 43 40 45 47 49 53 50 46 45 41 40 37 35 35 36 34 35 35
30 31 30 26 23 20 19 18 23 26 31 36 39 40 42 41 42 44 43 48 49 46 44 43 42 37 34 32 32 35 36 35
31 30 28 27 24 21 17 15 13 14 22 28 29 35 36 39 37 36 41 42 42 46 43 43 38 35 35 35 30 31 35 33
31 31 28 26 23 20 19 14 10 6 13 19 24 29 33 36 35 34 33 34 36 38 42 39 37 36 37 33 27 29 32 32
34 33 31 25 23 20 17 12 11 8 4 16 22 22 28 31 31 29 30 29 29 32 37 36 35 36 33 30 25 28 29 30
33 34 32 29 25 23 21 18 14 9 2 10 18 21 22 24 26 25 25 25 22 25 27 28 30 29 27 28 27 27 28 29
31 34 35 33 31 31 28 24 21 17 10 10 13 16 15 17 19 19 19 20 20 24 23 22 18 18 20 23 25 26 25 26
30 34 36 36 35 36 34 31 27 21 18 12 11 13 12 10 12 14 15 18 19 21 21 19 17 16 17 17 19 22 21 24
36 39 38 39 41 40 37 37 31 24 24 19 19 14 14 13 10 11 12 12 15 16 15 14 15 15 16 18 21 23 26 28
38 40 42 45 44 41 39 38 37 34 32 23 23 18 18 18 17 20 22 22 19 16 14 12 11 13 17 19 21 22 21 20
30 35 40 43 44 43 40 40 39 37 36 34 29 23 18 23 23 23 19 17 16 14 10 8 10 16 16 15 13 14 14 15
30 33 37 40 42 41 42 41 39 39 40 39 32 32 26 23 22 21 21 17 12 10 13 12 13 14 15 14 14 15 16 19
28 32 35 38 41 43 42 42 43 43 43 41 37 34 33 27 24 25 22 16 14 14 10 7 7 10 14 14 16 16 16 17
Wind_Direction
306 300 295 288 275 267 259 253 253 260 255 249 246 242 238 240 237 238 241 239 237 230 229 228 227 226 223 226 228 233 235 239
304 299 291 291 288 267 258 253 251 251 249 246 242 241 237 233 236 238 242 242 238 234 231 230 228 227 225 225 226 230 235 237
302 294 290 286 277 263 257 259 252 246 249 247 248 247 241 233 232 234 239 243 239 237 231 229 229 227 227 226 223 226 231 236
332 319 308 294 286 271 264 264 262 249 243 246 245 245 244 236 233 230 233 239 237 236 233 232 230 229 229 229 224 224 226 234
337 329 318 309 297 288 272 261 256 252 244 237 232 235 223 225 231 229 227 235 235 234 236 233 232 230 230 232 230 227 226 232
336 330 322 309 298 296 288 266 256 245 242 238 236 232 234 227 232 230 226 232 232 233 232 231 230 230 231 232 232 229 227 232
332 328 326 317 302 294 288 277 259 246 240 239 235 234 227 219 226 229 226 228 229 229 229 229 230 231 231 232 235 231 235 235
342 335 332 331 326 314 299 293 272 246 239 234 235 230 226 225 228 228 227 226 225 227 229 224 228 230 232 232 233 238 237 238
348 342 335 331 338 324 323 320 284 258 241 226 227 224 221 226 226 225 228 227 228 225 222 226 228 234 234 234 234 242 240 242
346 347 346 340 342 329 340 335 327 288 225 224 212 219 220 221 227 228 237 241 238 231 226 223 227 232 235 233 236 242 240 246
354 356 354 352 353 347 0 5 356 346 207 196 202 216 225 226 227 229 230 233 232 225 227 221 223 232 237 230 237 245 248 249
354 357 1 359 5 11 19 29 35 25 127 186 197 207 221 221 222 222 225 226 221 219 216 215 226 226 229 228 235 246 245 247
360 3 4 8 15 20 27 41 44 43 51 139 167 188 218 222 218 213 217 219 212 205 203 206 209 210 220 228 238 244 244 247
0 6 6 7 14 26 37 43 47 51 45 91 151 174 176 216 211 203 207 201 198 200 198 201 203 213 222 224 232 239 245 251
7 7 9 12 29 36 37 43 48 56 57 66 87 117 142 147 162 169 174 180 186 189 191 188 184 205 221 233 242 246 251 254
12 11 12 21 30 38 41 46 49 50 58 69 74 80 119 134 140 141 147 151 154 159 170 183 205 238 244 246 247 249 252 252
10 18 25 28 30 36 40 46 52 57 58 57 64 67 89 124 131 140 150 148 151 162 176 200 217 228 232 228 231 236 254 266
16 24 32 38 40 39 42 46 52 56 60 61 55 63 55 64 87 110 129 130 158 172 180 188 196 209 215 226 235 243 256 269
27 33 40 45 47 47 48 50 53 55 58 61 65 63 64 57 49 70 74 80 123 133 152 185 215 232 227 231 236 247 253 264
Height
1452 1451 1451 1451 1449 1449 1449 1450 1451 1453 1454 1456 1458 1462 1464 1470 1473 1475 1479 1483 1485 1489 1492 1495 1499 1503 1505 1508 1513 1517 1520 1523
1446 1445 1444 1444 1442 1441 1440 1440 1441 1444 1444 1443 1446 1449 1456 1460 1464 1468 1471 1476 1479 1483 1486 1489 1492 1496 1499 1502 1507 1511 1515 1519
1440 1437 1436 1435 1433 1432 1432 1431 1432 1432 1435 1435 1437 1441 1445 1451 1455 1459 1464 1468 1472 1474 1476 1479 1484 1489 1492 1496 1499 1503 1510 1513
1438 1434 1431 1428 1426 1424 1422 1422 1423 1423 1425 1429 1430 1433 1436 1438 1441 1448 1454 1458 1462 1466 1470 1474 1477 1481 1484 1488 1492 1495 1501 1506
1439 1434 1428 1423 1419 1416 1414 1412 1413 1414 1416 1417 1419 1421 1421 1423 1430 1437 1443 1448 1453 1458 1463 1467 1472 1474 1478 1482 1486 1489 1494 1498
1436 1432 1427 1422 1416 1409 1405 1403 1402 1403 1405 1407 1409 1412 1412 1419 1422 1427 1433 1438 1445 1449 1455 1459 1464 1467 1471 1475 1478 1483 1486 1491
1432 1429 1424 1418 1412 1405 1400 1396 1392 1391 1393 1396 1398 1401 1405 1409 1411 1415 1421 1428 1434 1440 1447 1451 1456 1460 1465 1467 1471 1476 1480 1485
1430 1424 1418 1413 1406 1400 1395 1390 1384 1381 1381 1384 1388 1392 1399 1401 1403 1406 1412 1418 1424 1432 1437 1443 1448 1453 1457 1462 1465 1470 1474 1478
1429 1425 1419 1411 1402 1396 1390 1384 1378 1375 1374 1374 1379 1384 1390 1394 1397 1401 1406 1411 1417 1422 1430 1437 1443 1450 1451 1455 1459 1463 1466 1471
1431 1425 1417 1409 1401 1393 1385 1379 1374 1370 1368 1369 1373 1379 1383 1386 1391 1397 1401 1407 1412 1417 1423 1433 1438 1442 1445 1450 1453 1456 1459 1463
1431 1423 1415 1408 1400 1391 1383 1375 1369 1366 1364 1365 1369 1374 1378 1383 1388 1391 1396 1400 1406 1411 1417 1424 1431 1435 1438 1443 1447 1449 1452 1455
1432 1424 1416 1408 1399 1389 1380 1373 1367 1363 1361 1363 1366 1371 1376 1380 1382 1387 1391 1395 1399 1406 1412 1418 1423 1427 1432 1436 1440 1443 1445 1449
1435 1423 1413 1404 1393 1386 1379 1367 1364 1362 1361 1362 1366 1369 1374 1377 1380 1384 1389 1393 1397 1405 1409 1414 1419 1422 1426 1430 1433 1436 1439 1442
1436 1427 1414 1401 1397 1388 1376 1371 1367 1366 1364 1362 1363 1367 1371 1376 1378 1382 1388 1392 1397 1403 1408 1411 1414 1419 1423 1425 1428 1431 1433 1436
1434 1424 1418 1411 1398 1387 1379 1377 1373 1370 1367 1366 1365 1368 1370 1371 1376 1380 1385 1392 1398 1403 1405 1409 1412 1416 1417 1419 1423 1425 1428 1430
1437 1430 1419 1408 1401 1397 1389 1385 1378 1373 1370 1370 1369 1372 1372 1373 1375 1380 1384 1390 1393 1396 1400 1403 1406 1408 1413 1415 1418 1420 1422 1424
1447 1438 1427 1418 1409 1402 1397 1391 1388 1384 1378 1378 1376 1376 1375 1375 1378 1381 1386 1389 1391 1395 1397 1398 1400 1407 1409 1411 1413 1416 1418 1419
1452 1445 1437 1430 1422 1415 1407 1401 1396 1391 1387 1383 1385 1382 1384 1380 1380 1381 1383 1388 1389 1388 1396 1397 1401 1403 1404 1407 1410 1411 1413 1413
1458 1452 1446 1438 1431 1424 1420 1413 1406 1400 1397 1394 1390 1392 1391 1387 1387 1383 1385 1391 1388 1393 1394 1399 1400 1401 1400 1402 1405 1406 1406 1405